Location: Unspecified
(0.0000°N, 0.0000°E)
Time: 07:57:18
(UTC+00:00)

Envisat - Visible Passes

Search period start: 20 October 2021 00:00
Search period end: 30 October 2021 00:00
Orbit: 764 x 766 km, 98.2° (Epoch: 19 October)

Date Brightness Start Highest point End Pass type
(mag) Time Alt. Az. Time Alt. Az. Time Alt. Az.
20 Oct 5.9 03:44:06 10° ENE 03:47:01 15° ESE 03:49:57 10° SE visible
20 Oct 3.7 05:21:21 10° NNW 05:25:44 30° WNW 05:30:10 10° SW visible
21 Oct 3.0 04:43:56 10° NNE 04:49:00 88° WNW 04:54:05 10° SSW visible
22 Oct 4.8 04:07:47 10° NE 04:12:15 32° ESE 04:16:44 10° SSE visible
23 Oct 6.3 03:34:17 10° E 03:35:32 11° ESE 03:36:47 10° ESE visible
23 Oct 3.4 05:09:30 10° N 05:14:16 42° WNW 05:19:02 10° SSW visible
24 Oct 3.4 04:32:29 10° NNE 04:37:30 67° ESE 04:42:32 10° S visible
25 Oct 5.3 03:56:47 10° NE 04:00:46 23° ESE 04:04:45 10° SSE visible
26 Oct 3.0 04:57:48 10° N 05:02:45 58° WNW 05:07:44 10° SSW visible
27 Oct 4.0 04:21:08 10° NNE 04:26:00 48° ESE 04:30:54 10° S visible
28 Oct 5.8 03:46:02 10° ENE 03:49:17 17° ESE 03:52:31 10° SE visible
29 Oct 2.9 04:46:12 10° N 04:51:15 80° WNW 04:56:21 10° SSW visible
